This is the latest recevied weather packets stored in our database for station/object WB5CFT. If no packets are shown the sender has not sent any weather packets the latest 10 day(s).
| Time | Temp. | Humidity | Pressure | Rain* | Wind** | Luminosity | Snow |
|---|---|---|---|---|---|---|---|
| 1777850965 | 25° C | 39% | 1015.1 hPa | 0 mm | - | 170 W/m² | - |
| 1777850662 | 23.89° C | 40% | 1015.2 hPa | 0 mm | - | 181 W/m² | - |
| 1777850360 | 24.44° C | 41% | 1015.3 hPa | 0 mm | - | 143 W/m² | - |
| 1777850057 | 24.44° C | 40% | 1015.3 hPa | 0 mm | - | 154 W/m² | - |
| 1777849753 | 24.44° C | 40% | 1015.5 hPa | 0 mm | - | 156 W/m² | - |
| 1777849450 | 24.44° C | 40% | 1015.6 hPa | 0 mm | - | 216 W/m² | - |
| 1777849148 | 24.44° C | 40% | 1015.8 hPa | 0 mm | - | 242 W/m² | - |
| 1777848843 | 24.44° C | 40% | 1015.7 hPa | 0 mm | - | 257 W/m² | - |
| 1777848540 | 24.44° C | 40% | 1015.8 hPa | 0 mm | - | 394 W/m² | - |
| 1777848237 | 24.44° C | 40% | 1015.9 hPa | 0 mm | - | 296 W/m² | - |
| 1777847935 | 24.44° C | 40% | 1015.9 hPa | 0 mm | - | 240 W/m² | - |
| 1777847632 | 25° C | 39% | 1016 hPa | 0 mm | - | 422 W/m² | - |
| 1777847327 | 25° C | 40% | 1015.9 hPa | 0 mm | - | 495 W/m² | - |
| 1777847027 | 25° C | 41% | 1015.8 hPa | 0 mm | - | 518 W/m² | - |
| 1777846724 | 24.44° C | 41% | 1016 hPa | 0 mm | - | 547 W/m² | - |
| 1777846423 | 24.44° C | 40% | 1016.3 hPa | 0 mm | - | 527 W/m² | - |
| 1777846118 | 24.44° C | 41% | 1016.6 hPa | 0 mm | - | 497 W/m² | - |
| 1777845816 | 24.44° C | 41% | 1016.3 hPa | 0 mm | - | 338 W/m² | - |
| 1777845512 | 24.44° C | 42% | 1016.7 hPa | 0 mm | - | 394 W/m² | - |
| 1777845209 | 23.89° C | 41% | 1016.8 hPa | 0 mm | - | 548 W/m² | - |
| 1777844907 | 23.89° C | 42% | 1016.9 hPa | 0 mm | - | 514 W/m² | - |
| 1777844605 | 23.89° C | 41% | 1017 hPa | 0 mm | - | 525 W/m² | - |
| 1777844301 | 23.33° C | 42% | 1017.1 hPa | 0 mm | - | 329 W/m² | - |
| 1777843999 | 23.33° C | 42% | 1017.4 hPa | 0 mm | - | 251 W/m² | - |
| 1777843696 | 23.33° C | 43% | 1017.2 hPa | 0 mm | - | 224 W/m² | - |
* Rain latest hour (hover to see other rain measurements)
** Current wind speed in m/s (hover to see current wind gust speed)